This is the latest recevied weather packets stored in our database for station/object OK2KJT-11. If no packets are shown the sender has not sent any weather packets the latest 10 day(s).
| Time | Temp. | Humidity | Pressure | Rain* | Wind** | Luminosity | Snow |
|---|---|---|---|---|---|---|---|
| 1787609653 | 11.11° C | 66% | 1021.6 hPa | - | - | - | - |
| 1787609053 | 10.56° C | 66% | 1021.6 hPa | - | - | - | - |
| 1787608454 | 11.11° C | 66% | 1021.7 hPa | - | - | - | - |
| 1787607854 | 11.11° C | 66% | 1021.7 hPa | - | - | - | - |
| 1787607255 | 11.11° C | 65% | 1021.8 hPa | - | - | - | - |
| 1787606655 | 11.11° C | 66% | 1021.8 hPa | - | - | - | - |
| 1787606055 | 11.11° C | 66% | 1021.7 hPa | - | - | - | - |
| 1787605455 | 11.11° C | 67% | 1021.6 hPa | - | - | - | - |
| 1787604855 | 10.56° C | 70% | 1021.5 hPa | - | - | - | - |
| 1787604256 | 10.56° C | 71% | 1021.5 hPa | - | - | - | - |
| 1787603657 | 10.56° C | 70% | 1021.4 hPa | - | - | - | - |
| 1787603057 | 10.56° C | 70% | 1021.5 hPa | - | - | - | - |
| 1787602457 | 10.56° C | 70% | 1021.4 hPa | - | - | - | - |
| 1787601858 | 10.56° C | 70% | 1021.4 hPa | - | - | - | - |
| 1787601258 | 10.56° C | 70% | 1021.5 hPa | - | - | - | - |
| 1787600658 | 10.56° C | 70% | 1021.6 hPa | - | - | - | - |
| 1787600066 | 11.11° C | 70% | 1021.6 hPa | - | - | - | - |
| 1787599459 | 11.11° C | 70% | 1021.7 hPa | - | - | - | - |
| 1787598859 | 11.11° C | 70% | 1021.7 hPa | - | - | - | - |
| 1787598259 | 11.11° C | 70% | 1021.9 hPa | - | - | - | - |
| 1787597659 | 11.11° C | 69% | 1021.8 hPa | - | - | - | - |
| 1787597060 | 11.67° C | 67% | 1021.9 hPa | - | - | - | - |
| 1787596460 | 12.22° C | 65% | 1022 hPa | - | - | - | - |
| 1787595860 | 12.22° C | 64% | 1021.9 hPa | - | - | - | - |
| 1787595268 | 12.78° C | 63% | 1021.9 hPa | - | - | - | - |
* Rain since midnight (hover to see other rain measurements)
** Current wind speed in m/s (hover to see current wind gust speed)